Regional Weather Roundup
Issued by NWS

Home | Current Version | Previous Version | Text Only | Print | Product List | Glossary Off
Versions: 1 2 3 4 5 6 7 8 9 10 11 12 13 14 15 16 17 18 19 20 21 22 23 24 25 26 27 28 29 30 31 32 33 34 35 36 37 38 39 40 41 42 43 44 45 46 47 48 49 50

000
ASUS45 KBOI 010610
RWRID

IDAHO REGIONAL WEATHER ROUNDUP
NATIONAL WEATHER SERVICE BOISE ID
1200 AM MDT WED JUL 01 2015

NOTE: "FAIR" INDICATES FEW OR NO CLOUDS BELOW 12000 FEET
WITH NO SIGNIFICANT WEATHER AND/OR OBSTRUCTIONS TO VISIBILITY

IDZ012-014-010700-
SOUTHWEST IDAHO


CITY           SKY/WX    TMP DP  RH WIND       PRES   REMARKS
BOISE          CLEAR     85  47  26 W7        29.94
CALDWELL       CLEAR     81  52  36 NW10      29.94R
MOUNTAIN HOME  PTCLDY    85  44  23 NW5       29.95R
$$

IDZ016-017-010700-
SOUTHCENTRAL IDAHO


CITY           SKY/WX    TMP DP  RH WIND       PRES   REMARKS
BURLEY         CLOUDY    77  55  46 S22G32    30.03
JEROME         CLOUDY    78  55  44 S22       30.04
TWIN FALLS     CLOUDY    79  55  43 S23G36    30.03
$$

IDZ019>023-010700-
SOUTHEAST IDAHO


CITY           SKY/WX    TMP DP  RH WIND       PRES   REMARKS
IDAHO FALLS    MOCLDY    62  59  90 NW6       30.09
POCATELLO      PTCLDY    76  64  66 SW7       30.06
REXBURG        PTCLDY    64  56  75 NE5       30.11
$$

IDZ006-010-011-018-031-032-010700-
CENTRAL IDAHO MOUNTAINS


CITY           SKY/WX    TMP DP  RH WIND       PRES   REMARKS
MCCALL         CLEAR     73  51  46 N6        30.14
HAILEY         PTCLDY    70  46  43 NW5       30.14R
STANLEY          N/A     58  38  47 CALM      30.26R
SALMON         CLEAR     73  48  40 S7        30.05R
CHALLIS        CLEAR     78  46  32 NW10      30.12
$$

IDZ002-004-006-007-026-010700-
NORTHERN IDAHO


CITY           SKY/WX    TMP DP  RH WIND       PRES   REMARKS
LEWISTON       CLEAR     86  43  22 SW7       29.92R
LOWELL           N/A     72  59  63 N3        29.96R
COEUR D`ALENE  CLEAR     73  55  53 E5        29.97R
MULLAN PASS    CLEAR     64  43  46 NW3       30.22
$$



USA.gov is the U.S. government's official web portal to all federal, state and local government web resources and services.